Time,TemperatureF,DewpointF,PressureIn,WindDirection,WindDirectionDegrees,WindSpeedMPH,WindSpeedGustMPH,Humidity,HourlyPrecipIn,Conditions,Clouds,dailyrainin,SoftwareType,DateUTC
2013-07-27 00:01:00,69.0,68.7,30.07,North,0,0.0,0.0,99,0.29,,---,0.00,VWS V14.00,2013-07-27 04:01:00,
2013-07-27 00:02:00,68.9,68.6,30.07,North,0,0.0,0.0,99,0.29,,---,0.00,VWS V14.00,2013-07-27 04:02:00,
2013-07-27 00:07:00,68.9,68.6,30.06,NNW,338,0.0,0.0,99,0.33,,---,0.04,VWS V14.00,2013-07-27 04:07:00,
2013-07-27 00:12:00,68.9,68.6,30.06,NNW,338,0.0,0.0,99,0.41,,---,0.12,VWS V14.00,2013-07-27 04:12:00,
2013-07-27 00:17:00,68.7,68.4,30.07,NNW,338,0.0,0.0,99,0.43,,---,0.14,VWS V14.00,2013-07-27 04:17:00,
2013-07-27 00:22:00,68.7,68.4,30.07,NNW,338,0.0,0.0,99,0.47,,---,0.18,VWS V14.00,2013-07-27 04:22:00,
2013-07-27 00:27:00,68.7,68.4,30.07,NNW,338,0.0,0.0,99,0.53,,---,0.24,VWS V14.00,2013-07-27 04:27:00,
2013-07-27 00:32:00,68.5,68.5,30.07,NNW,338,0.0,0.0,100,0.71,,---,0.43,VWS V14.00,2013-07-27 04:32:00,
2013-07-27 00:37:00,68.5,68.5,30.08,NNW,338,0.0,0.0,100,0.88,,---,0.59,VWS V14.00,2013-07-27 04:37:00,
2013-07-27 00:42:00,68.3,68.3,30.08,North,0,0.0,0.0,100,1.04,,---,0.75,VWS V14.00,2013-07-27 04:42:00,
2013-07-27 00:47:00,67.8,67.8,30.08,North,0,0.0,0.0,100,1.19,,---,0.90,VWS V14.00,2013-07-27 04:47:00,
2013-07-27 00:52:00,67.8,67.8,30.08,North,0,0.0,0.0,100,1.18,,---,1.00,VWS V14.00,2013-07-27 04:52:00,
2013-07-27 00:57:00,67.6,67.6,30.08,North,0,0.0,0.0,100,1.33,,---,1.14,VWS V14.00,2013-07-27 04:57:00,
2013-07-27 01:02:00,67.2,67.2,30.07,North,0,0.0,0.0,100,1.30,,---,1.30,VWS V14.00,2013-07-27 05:02:00,
2013-07-27 01:07:00,67.1,67.1,30.07,North,0,0.0,0.0,100,1.32,,---,1.32,VWS V14.00,2013-07-27 05:07:00,
2013-07-27 01:12:00,66.9,66.9,30.07,North,0,0.0,0.0,100,1.26,,---,1.37,VWS V14.00,2013-07-27 05:12:00,
2013-07-27 01:17:00,66.7,66.7,30.07,North,0,0.0,0.0,100,1.26,,---,1.37,VWS V14.00,2013-07-27 05:17:00,
2013-07-27 01:22:00,66.7,66.7,30.06,North,0,0.0,0.0,100,1.20,,---,1.37,VWS V14.00,2013-07-27 05:22:00,
2013-07-27 01:27:00,66.7,66.7,30.06,North,0,0.0,0.0,100,1.20,,---,1.37,VWS V14.00,2013-07-27 05:27:00,
2013-07-27 01:32:00,66.7,66.7,30.05,North,0,0.0,0.0,100,1.00,,---,1.39,VWS V14.00,2013-07-27 05:32:00,
2013-07-27 01:37:00,66.7,66.7,30.05,North,0,0.0,0.0,100,1.00,,---,1.39,VWS V14.00,2013-07-27 05:37:00,
2013-07-27 01:42:00,66.5,66.5,30.05,North,0,0.0,0.0,100,0.63,,---,1.39,VWS V14.00,2013-07-27 05:42:00,
2013-07-27 01:48:00,66.3,66.3,30.05,North,0,0.0,0.0,100,0.63,,---,1.39,VWS V14.00,2013-07-27 05:48:00,
2013-07-27 01:53:00,66.3,66.3,30.05,North,0,0.0,0.0,100,0.45,,---,1.39,VWS V14.00,2013-07-27 05:53:00,
2013-07-27 01:58:00,66.3,66.3,30.05,North,0,0.0,0.0,100,0.45,,---,1.39,VWS V14.00,2013-07-27 05:58:00,
2013-07-27 02:03:00,66.2,66.2,30.05,North,0,0.0,0.0,100,0.12,,---,1.39,VWS V14.00,2013-07-27 06:03:00,
2013-07-27 02:08:00,66.2,66.2,30.04,North,0,0.0,0.0,100,0.12,,---,1.39,VWS V14.00,2013-07-27 06:08:00,
2013-07-27 02:13:00,66.2,66.2,30.04,North,0,0.0,0.0,100,0.04,,---,1.39,VWS V14.00,2013-07-27 06:13:00,
2013-07-27 02:18:00,66.2,66.2,30.04,North,0,0.0,0.0,100,0.04,,---,1.39,VWS V14.00,2013-07-27 06:18:00,
2013-07-27 02:23:00,66.2,66.2,30.04,North,0,0.0,0.0,100,0.02,,---,1.39,VWS V14.00,2013-07-27 06:23:00,
2013-07-27 02:28:00,66.2,66.2,30.04,North,0,0.0,0.0,100,0.02,,---,1.39,VWS V14.00,2013-07-27 06:28:00,
2013-07-27 02:33:00,66.2,66.2,30.04,North,0,0.0,0.0,100,0.00,,---,1.39,VWS V14.00,2013-07-27 06:33:00,
2013-07-27 02:38:00,66.2,66.2,30.03,North,0,0.0,0.0,100,0.00,,---,1.39,VWS V14.00,2013-07-27 06:38:00,
2013-07-27 02:43:00,66.0,66.0,30.03,North,0,0.0,0.0,100,0.02,,---,1.41,VWS V14.00,2013-07-27 06:43:00,
2013-07-27 02:48:00,66.0,66.0,30.03,North,0,0.0,0.0,100,0.02,,---,1.41,VWS V14.00,2013-07-27 06:48:00,
2013-07-27 02:53:00,66.0,66.0,30.03,North,0,0.0,0.0,100,0.02,,---,1.41,VWS V14.00,2013-07-27 06:53:00,
2013-07-27 02:58:00,66.0,66.0,30.02,North,0,0.0,0.0,100,0.02,,---,1.41,VWS V14.00,2013-07-27 06:58:00,
2013-07-27 03:03:00,66.0,66.0,30.03,North,0,0.0,0.0,100,0.02,,---,1.41,VWS V14.00,2013-07-27 07:03:00,
2013-07-27 03:08:00,66.0,66.0,30.02,North,0,0.0,0.0,100,0.02,,---,1.41,VWS V14.00,2013-07-27 07:08:00,
2013-07-27 03:13:00,66.0,66.0,30.03,North,0,0.0,0.0,100,0.02,,---,1.41,VWS V14.00,2013-07-27 07:13:00,
2013-07-27 03:18:00,66.0,66.0,30.02,North,0,0.0,0.0,100,0.02,,---,1.41,VWS V14.00,2013-07-27 07:18:00,
2013-07-27 03:23:00,66.2,66.2,30.02,North,0,0.0,0.0,100,0.06,,---,1.44,VWS V14.00,2013-07-27 07:23:00,
2013-07-27 03:28:00,66.2,66.2,30.01,North,0,0.0,0.0,100,0.08,,---,1.47,VWS V14.00,2013-07-27 07:28:00,
2013-07-27 03:33:00,66.0,66.0,30.02,North,0,0.0,0.0,100,0.12,,---,1.51,VWS V14.00,2013-07-27 07:33:00,
2013-07-27 03:38:00,66.0,66.0,30.01,North,0,0.0,0.0,100,0.12,,---,1.51,VWS V14.00,2013-07-27 07:38:00,
2013-07-27 03:43:00,66.0,66.0,30.02,North,0,0.0,0.0,100,0.10,,---,1.51,VWS V14.00,2013-07-27 07:43:00,
2013-07-27 03:48:00,66.0,66.0,30.01,North,0,0.0,0.0,100,0.12,,---,1.53,VWS V14.00,2013-07-27 07:48:00,
2013-07-27 03:53:00,66.0,66.0,30.01,North,0,0.0,0.0,100,0.12,,---,1.53,VWS V14.00,2013-07-27 07:53:00,
2013-07-27 03:58:00,66.0,66.0,30.01,North,0,0.0,0.0,100,0.12,,---,1.53,VWS V14.00,2013-07-27 07:58:00,
2013-07-27 04:03:00,66.0,66.0,30.01,North,0,0.0,0.0,100,0.12,,---,1.53,VWS V14.00,2013-07-27 08:03:00,
2013-07-27 04:08:00,66.2,66.2,30.01,North,0,0.0,0.0,100,0.14,,---,1.55,VWS V14.00,2013-07-27 08:08:00,
2013-07-27 04:13:00,66.2,66.2,30.01,North,0,0.0,0.0,100,0.16,,---,1.57,VWS V14.00,2013-07-27 08:13:00,
2013-07-27 04:18:00,66.2,66.2,30.01,North,0,0.0,0.0,100,0.16,,---,1.57,VWS V14.00,2013-07-27 08:18:00,
2013-07-27 04:23:00,66.2,66.2,30.01,North,0,0.0,0.0,100,0.17,,---,1.59,VWS V14.00,2013-07-27 08:23:00,
2013-07-27 04:28:00,66.2,66.2,30.01,North,0,0.0,0.0,100,0.17,,---,1.59,VWS V14.00,2013-07-27 08:28:00,
2013-07-27 04:33:00,66.0,66.0,30.01,North,0,0.0,0.0,100,0.08,,---,1.59,VWS V14.00,2013-07-27 08:33:00,
2013-07-27 04:38:00,66.0,66.0,30.00,North,0,0.0,0.0,100,0.08,,---,1.59,VWS V14.00,2013-07-27 08:38:00,
2013-07-27 04:43:00,66.2,66.2,30.00,North,0,0.0,0.0,100,0.08,,---,1.59,VWS V14.00,2013-07-27 08:43:00,
2013-07-27 04:48:00,66.2,66.2,30.00,North,0,0.0,0.0,100,0.08,,---,1.59,VWS V14.00,2013-07-27 08:48:00,
2013-07-27 04:53:00,66.2,66.2,30.00,North,0,0.0,0.0,100,0.06,,---,1.59,VWS V14.00,2013-07-27 08:53:00,
2013-07-27 04:58:00,66.0,66.0,30.00,North,0,0.0,0.0,100,0.06,,---,1.59,VWS V14.00,2013-07-27 08:58:00,
2013-07-27 05:03:00,66.0,66.0,30.00,North,0,0.0,0.0,100,0.06,,---,1.59,VWS V14.00,2013-07-27 09:03:00,
2013-07-27 05:08:00,66.2,66.2,30.00,North,0,0.0,0.0,100,0.06,,---,1.59,VWS V14.00,2013-07-27 09:08:00,
2013-07-27 05:13:00,66.0,66.0,30.00,North,0,0.0,0.0,100,0.04,,---,1.59,VWS V14.00,2013-07-27 09:13:00,
2013-07-27 05:18:00,66.0,66.0,30.00,North,0,0.0,0.0,100,0.04,,---,1.59,VWS V14.00,2013-07-27 09:18:00,
2013-07-27 05:23:00,66.0,66.0,30.00,North,0,0.0,0.0,100,0.02,,---,1.59,VWS V14.00,2013-07-27 09:23:00,
2013-07-27 05:28:00,66.0,66.0,30.00,North,0,0.0,0.0,100,0.02,,---,1.59,VWS V14.00,2013-07-27 09:28:00,
2013-07-27 05:33:00,66.0,66.0,30.00,North,0,0.0,0.0,100,0.00,,---,1.59,VWS V14.00,2013-07-27 09:33:00,
2013-07-27 05:38:00,66.0,66.0,30.00,North,0,0.0,0.0,100,0.00,,---,1.59,VWS V14.00,2013-07-27 09:38:00,
2013-07-27 05:43:00,66.0,66.0,30.00,North,0,0.0,0.0,100,0.00,,---,1.59,VWS V14.00,2013-07-27 09:43:00,
2013-07-27 05:48:00,66.0,66.0,30.00,North,0,0.0,0.0,100,0.00,,---,1.59,VWS V14.00,2013-07-27 09:48:00,
2013-07-27 05:53:00,66.0,66.0,30.01,North,0,0.0,0.0,100,0.00,,---,1.59,VWS V14.00,2013-07-27 09:53:00,
2013-07-27 05:58:00,66.0,66.0,30.00,North,0,0.0,0.0,100,0.00,,---,1.59,VWS V14.00,2013-07-27 09:58:00,
2013-07-27 06:03:00,66.2,66.2,30.00,North,0,0.0,0.0,100,0.00,,---,1.59,VWS V14.00,2013-07-27 10:03:00,
2013-07-27 06:08:00,66.2,66.2,30.00,North,0,0.0,0.0,100,0.00,,---,1.59,VWS V14.00,2013-07-27 10:08:00,
2013-07-27 06:13:00,66.3,66.3,30.00,North,0,0.0,0.0,100,0.00,,---,1.59,VWS V14.00,2013-07-27 10:13:00,
2013-07-27 06:19:00,66.3,66.3,30.01,North,0,0.0,0.0,100,0.00,,---,1.59,VWS V14.00,2013-07-27 10:19:00,
2013-07-27 06:24:00,66.3,66.3,30.01,North,0,0.0,0.0,100,0.02,,---,1.61,VWS V14.00,2013-07-27 10:24:00,
2013-07-27 06:29:00,66.3,66.3,30.01,North,0,0.0,0.0,100,0.02,,---,1.61,VWS V14.00,2013-07-27 10:29:00,
2013-07-27 06:34:00,66.3,66.3,30.01,North,0,0.0,0.0,100,0.08,,---,1.67,VWS V14.00,2013-07-27 10:34:00,
2013-07-27 06:39:00,66.3,66.3,30.00,North,0,0.0,0.0,100,0.08,,---,1.67,VWS V14.00,2013-07-27 10:39:00,
2013-07-27 06:44:00,66.3,66.3,30.01,North,0,0.0,0.0,100,0.08,,---,1.67,VWS V14.00,2013-07-27 10:44:00,
2013-07-27 06:49:00,66.3,66.3,30.00,North,0,0.0,0.0,100,0.08,,---,1.67,VWS V14.00,2013-07-27 10:49:00,
2013-07-27 06:54:00,66.5,66.5,30.00,North,0,0.0,0.0,100,0.08,,---,1.67,VWS V14.00,2013-07-27 10:54:00,
2013-07-27 06:59:00,66.5,66.5,30.01,North,0,0.0,0.0,100,0.10,,---,1.69,VWS V14.00,2013-07-27 10:59:00,
2013-07-27 07:04:00,66.5,66.5,30.00,North,0,0.0,0.0,100,0.10,,---,1.69,VWS V14.00,2013-07-27 11:04:00,
2013-07-27 07:09:00,66.7,66.7,30.00,North,0,0.0,0.0,100,0.10,,---,1.69,VWS V14.00,2013-07-27 11:09:00,
2013-07-27 07:14:00,66.7,66.7,30.00,North,0,0.0,0.0,100,0.10,,---,1.69,VWS V14.00,2013-07-27 11:14:00,
2013-07-27 07:19:00,66.7,66.7,30.00,North,0,0.0,0.0,100,0.10,,---,1.69,VWS V14.00,2013-07-27 11:19:00,
2013-07-27 07:24:00,66.9,66.9,30.01,North,0,0.0,0.0,100,0.10,,---,1.69,VWS V14.00,2013-07-27 11:24:00,
2013-07-27 07:29:00,66.9,66.9,30.01,North,0,0.0,0.0,100,0.10,,---,1.69,VWS V14.00,2013-07-27 11:29:00,
2013-07-27 07:34:00,66.9,66.9,30.01,North,0,0.0,0.0,100,0.02,,---,1.69,VWS V14.00,2013-07-27 11:34:00,
2013-07-27 07:39:00,66.9,66.9,30.01,North,0,0.0,0.0,100,0.02,,---,1.69,VWS V14.00,2013-07-27 11:39:00,
2013-07-27 07:44:00,67.2,67.2,30.01,North,0,0.0,0.0,100,0.02,,---,1.69,VWS V14.00,2013-07-27 11:44:00,
2013-07-27 07:49:00,67.2,67.2,30.01,North,0,0.0,0.0,100,0.02,,---,1.69,VWS V14.00,2013-07-27 11:49:00,
2013-07-27 07:54:00,67.2,67.2,30.01,North,0,0.0,0.0,100,0.02,,---,1.69,VWS V14.00,2013-07-27 11:54:00,
2013-07-27 07:59:00,67.2,67.2,30.02,North,0,0.0,0.0,100,0.02,,---,1.69,VWS V14.00,2013-07-27 11:59:00,
2013-07-27 08:04:00,67.2,67.2,30.02,North,0,0.0,0.0,100,0.00,,---,1.69,VWS V14.00,2013-07-27 12:04:00,
2013-07-27 08:09:00,67.2,67.2,30.02,North,0,0.0,0.0,100,0.00,,---,1.69,VWS V14.00,2013-07-27 12:09:00,
2013-07-27 08:14:00,67.2,67.2,30.02,North,0,0.0,0.0,100,0.14,,---,1.83,VWS V14.00,2013-07-27 12:14:00,
2013-07-27 08:19:00,67.4,67.4,30.02,SW,225,0.0,0.0,100,0.16,,---,1.85,VWS V14.00,2013-07-27 12:19:00,
2013-07-27 08:24:00,67.4,67.4,30.02,East,90,4.6,4.6,100,0.18,,---,1.87,VWS V14.00,2013-07-27 12:24:00,
2013-07-27 08:29:00,67.2,67.2,30.01,SSE,158,0.0,4.6,100,0.20,,---,1.89,VWS V14.00,2013-07-27 12:29:00,
2013-07-27 08:34:00,67.2,67.2,30.01,East,90,0.0,0.0,100,0.28,,---,1.98,VWS V14.00,2013-07-27 12:34:00,
2013-07-27 08:39:00,67.2,67.2,30.02,SSE,158,0.0,0.0,100,0.45,,---,2.14,VWS V14.00,2013-07-27 12:39:00,
2013-07-27 08:44:00,67.1,67.1,30.01,ENE,68,0.0,3.8,100,0.47,,---,2.16,VWS V14.00,2013-07-27 12:44:00,
2013-07-27 08:49:00,66.9,66.9,30.01,North,0,0.0,3.8,100,0.51,,---,2.20,VWS V14.00,2013-07-27 12:49:00,
2013-07-27 08:54:00,66.9,66.9,30.01,NNW,338,0.2,0.2,100,0.51,,---,2.20,VWS V14.00,2013-07-27 12:54:00,
2013-07-27 08:59:00,67.2,67.2,30.02,NNW,338,0.0,0.2,100,0.51,,---,0.00,VWS V14.00,2013-07-27 12:59:00,
2013-07-27 09:04:00,67.6,67.6,30.02,NNW,338,0.0,0.0,100,0.51,,---,2.20,VWS V14.00,2013-07-27 13:04:00,
2013-07-27 09:09:00,67.8,67.8,30.02,NNW,338,0.0,0.0,100,0.51,,---,2.20,VWS V14.00,2013-07-27 13:09:00,
2013-07-27 09:14:00,68.1,68.1,30.02,North,0,0.0,0.0,100,0.49,,---,2.20,VWS V14.00,2013-07-27 13:14:00,
2013-07-27 09:19:00,68.3,68.3,30.02,NNW,338,0.0,0.0,100,0.49,,---,2.20,VWS V14.00,2013-07-27 13:19:00,
2013-07-27 09:24:00,68.5,68.5,30.02,North,0,0.0,0.0,100,0.35,,---,2.20,VWS V14.00,2013-07-27 13:24:00,
2013-07-27 09:29:00,68.5,68.5,30.03,North,0,0.0,0.0,100,0.35,,---,2.20,VWS V14.00,2013-07-27 13:29:00,
2013-07-27 09:34:00,68.5,68.5,30.02,North,0,0.0,0.0,100,0.28,,---,2.20,VWS V14.00,2013-07-27 13:34:00,
2013-07-27 09:39:00,68.5,68.5,30.02,North,0,0.0,0.0,100,0.28,,---,2.20,VWS V14.00,2013-07-27 13:39:00,
2013-07-27 09:44:00,68.5,68.5,30.02,North,0,0.0,0.0,100,0.04,,---,2.20,VWS V14.00,2013-07-27 13:44:00,
2013-07-27 09:49:00,68.5,68.5,30.02,North,0,0.0,0.0,100,0.04,,---,2.20,VWS V14.00,2013-07-27 13:49:00,
2013-07-27 09:55:00,68.7,68.7,30.02,North,0,0.0,0.0,100,0.00,,---,2.20,VWS V14.00,2013-07-27 13:55:00,
2013-07-27 10:00:00,68.9,68.9,30.02,North,0,0.0,0.0,100,0.00,,---,2.20,VWS V14.00,2013-07-27 14:00:00,
2013-07-27 10:05:00,69.4,69.4,30.02,North,0,0.0,0.0,100,0.00,,---,2.20,VWS V14.00,2013-07-27 14:05:00,
2013-07-27 10:10:00,69.9,69.9,30.02,North,0,0.0,0.0,100,0.00,,---,2.20,VWS V14.00,2013-07-27 14:10:00,
2013-07-27 10:15:00,70.5,70.5,30.02,North,0,0.0,0.0,100,0.00,,---,2.20,VWS V14.00,2013-07-27 14:15:00,
2013-07-27 10:20:00,70.7,70.7,30.02,North,0,0.0,0.0,100,0.00,,---,2.20,VWS V14.00,2013-07-27 14:20:00,
2013-07-27 10:25:00,70.7,70.7,30.02,North,0,0.0,0.0,100,0.00,,---,2.20,VWS V14.00,2013-07-27 14:25:00,
2013-07-27 10:30:00,70.8,70.8,30.02,North,0,0.0,0.0,100,0.00,,---,2.20,VWS V14.00,2013-07-27 14:30:00,
2013-07-27 10:35:00,71.2,71.2,30.01,North,0,0.0,0.0,100,0.00,,---,2.20,VWS V14.00,2013-07-27 14:35:00,
2013-07-27 10:40:00,71.2,71.2,30.01,North,0,0.0,0.0,100,0.00,,---,2.20,VWS V14.00,2013-07-27 14:40:00,
2013-07-27 10:45:00,71.9,71.9,30.01,North,0,0.0,0.0,100,0.00,,---,2.20,VWS V14.00,2013-07-27 14:45:00,
2013-07-27 10:50:00,73.0,73.0,30.01,North,0,0.0,0.0,100,0.00,,---,2.20,VWS V14.00,2013-07-27 14:50:00,
2013-07-27 10:55:00,74.1,74.1,30.01,North,0,0.0,0.0,100,0.00,,---,2.20,VWS V14.00,2013-07-27 14:55:00,
2013-07-27 11:00:00,75.3,74.1,30.01,NE,45,0.0,0.0,96,0.00,,---,2.20,VWS V14.00,2013-07-27 15:00:00,
2013-07-27 11:05:00,75.3,74.1,30.01,NE,45,0.0,0.0,96,0.00,,---,2.20,VWS V14.00,2013-07-27 15:05:00,
2013-07-27 11:10:00,75.3,73.8,30.01,NE,45,0.0,0.0,95,0.00,,---,2.20,VWS V14.00,2013-07-27 15:10:00,
2013-07-27 11:15:00,75.3,73.8,30.01,ENE,68,0.0,0.0,95,0.00,,---,2.20,VWS V14.00,2013-07-27 15:15:00,
2013-07-27 11:20:00,75.7,74.2,30.01,ENE,68,0.0,0.0,95,0.00,,---,2.20,VWS V14.00,2013-07-27 15:20:00,
2013-07-27 11:25:00,76.2,75.0,30.00,ENE,68,0.0,0.0,96,0.00,,---,2.20,VWS V14.00,2013-07-27 15:25:00,
2013-07-27 11:30:00,77.0,75.8,30.01,ENE,68,0.0,0.0,96,0.00,,---,2.20,VWS V14.00,2013-07-27 15:30:00,
2013-07-27 11:35:00,77.9,76.4,30.00,ENE,68,0.0,0.0,95,0.00,,---,2.20,VWS V14.00,2013-07-27 15:35:00,
2013-07-27 11:40:00,79.7,78.2,30.00,SSW,202,0.0,0.0,95,0.00,,---,0.00,VWS V14.00,2013-07-27 15:40:00,
2013-07-27 11:45:00,80.2,78.0,30.00,SSW,202,0.0,0.0,93,0.00,,---,2.20,VWS V14.00,2013-07-27 15:45:00,
2013-07-27 11:50:00,80.7,77.5,30.00,WSW,248,0.0,0.0,90,0.00,,---,2.20,VWS V14.00,2013-07-27 15:50:00,
2013-07-27 11:55:00,80.7,77.2,30.00,WNW,292,0.0,0.0,89,0.00,,---,2.20,VWS V14.00,2013-07-27 15:55:00,
2013-07-27 12:00:00,81.3,77.1,30.00,NW,315,0.0,0.0,87,0.00,,---,2.20,VWS V14.00,2013-07-27 16:00:00,
2013-07-27 12:05:00,81.6,77.4,30.00,WNW,292,0.0,0.0,87,0.00,,---,2.20,VWS V14.00,2013-07-27 16:05:00,
2013-07-27 12:10:00,82.4,77.8,30.00,NW,315,0.0,0.0,86,0.00,,---,2.20,VWS V14.00,2013-07-27 16:10:00,
2013-07-27 12:15:00,82.2,77.6,30.00,NW,315,0.0,0.0,86,0.00,,---,2.20,VWS V14.00,2013-07-27 16:15:00,
2013-07-27 12:22:00,81.6,77.4,29.99,NW,315,0.0,0.0,87,0.00,,---,2.20,VWS V14.00,2013-07-27 16:22:00,
2013-07-27 12:27:00,81.6,76.7,30.00,ENE,68,0.0,0.0,85,0.00,,---,2.20,VWS V14.00,2013-07-27 16:27:00,
2013-07-27 12:32:00,82.0,76.3,29.99,ENE,68,0.0,0.0,83,0.00,,---,2.20,VWS V14.00,2013-07-27 16:32:00,
2013-07-27 12:37:00,82.2,77.2,29.99,ENE,68,0.0,0.0,85,0.00,,---,2.20,VWS V14.00,2013-07-27 16:37:00,
2013-07-27 12:42:00,82.5,77.2,29.99,ENE,68,0.0,0.0,84,0.00,,---,2.20,VWS V14.00,2013-07-27 16:42:00,
2013-07-27 12:47:00,82.2,76.5,29.99,ENE,68,0.0,0.0,83,0.00,,---,2.20,VWS V14.00,2013-07-27 16:47:00,
2013-07-27 12:52:00,81.3,75.7,29.99,ENE,68,0.0,0.0,83,0.00,,---,2.20,VWS V14.00,2013-07-27 16:52:00,
2013-07-27 12:57:00,80.7,75.4,29.99,ENE,68,0.0,0.0,84,0.00,,---,2.20,VWS V14.00,2013-07-27 16:57:00,
2013-07-27 13:02:00,80.6,75.7,29.99,SSE,158,0.0,0.0,85,0.00,,---,2.20,VWS V14.00,2013-07-27 17:02:00,
2013-07-27 13:07:00,81.1,76.5,29.99,SSW,202,0.0,0.0,86,0.00,,---,2.20,VWS V14.00,2013-07-27 17:07:00,
2013-07-27 13:12:00,81.3,76.7,29.99,SSW,202,0.0,0.0,86,0.00,,---,2.20,VWS V14.00,2013-07-27 17:12:00,
2013-07-27 13:17:00,81.5,76.9,29.98,SSW,202,0.0,0.0,86,0.00,,---,2.20,VWS V14.00,2013-07-27 17:17:00,
2013-07-27 13:22:00,82.0,77.4,29.98,SSW,202,0.0,0.0,86,0.00,,---,2.20,VWS V14.00,2013-07-27 17:22:00,
2013-07-27 13:27:00,82.2,76.9,29.98,South,180,0.0,0.0,84,0.00,,---,2.20,VWS V14.00,2013-07-27 17:27:00,
2013-07-27 13:32:00,82.2,75.8,29.98,NE,45,0.0,0.0,81,0.00,,---,2.20,VWS V14.00,2013-07-27 17:32:00,
2013-07-27 13:37:00,82.2,76.5,29.97,ENE,68,0.0,0.0,83,0.00,,---,2.20,VWS V14.00,2013-07-27 17:37:00,
2013-07-27 13:42:00,82.2,76.5,29.97,ENE,68,0.0,0.0,83,0.00,,---,2.20,VWS V14.00,2013-07-27 17:42:00,
2013-07-27 13:47:00,82.2,76.5,29.97,ENE,68,0.0,0.0,83,0.00,,---,2.20,VWS V14.00,2013-07-27 17:47:00,
2013-07-27 13:52:00,82.2,76.5,29.97,ENE,68,0.0,0.0,83,0.00,,---,2.20,VWS V14.00,2013-07-27 17:52:00,
2013-07-27 13:57:00,82.0,76.0,29.97,ENE,68,0.0,0.0,82,0.00,,---,2.20,VWS V14.00,2013-07-27 17:57:00,
2013-07-27 14:02:00,82.0,76.3,29.97,ENE,68,0.0,0.0,83,0.00,,---,2.20,VWS V14.00,2013-07-27 18:02:00,
2013-07-27 14:07:00,81.6,76.7,29.97,ENE,68,0.0,0.0,85,0.00,,---,2.20,VWS V14.00,2013-07-27 18:07:00,
2013-07-27 14:12:00,82.0,77.1,29.97,ENE,68,0.0,0.0,85,0.00,,---,2.20,VWS V14.00,2013-07-27 18:12:00,
2013-07-27 14:17:00,82.0,77.1,29.97,ENE,68,0.0,0.0,85,0.00,,---,2.20,VWS V14.00,2013-07-27 18:17:00,
2013-07-27 14:22:00,82.7,77.4,29.97,ENE,68,0.0,0.0,84,0.00,,---,2.20,VWS V14.00,2013-07-27 18:22:00,
2013-07-27 14:28:00,83.1,77.8,29.97,ENE,68,0.0,0.0,84,0.00,,---,2.20,VWS V14.00,2013-07-27 18:28:00,
2013-07-27 14:32:00,83.4,78.1,29.97,SW,225,0.0,0.0,84,0.00,,---,2.20,VWS V14.00,2013-07-27 18:32:00,
2013-07-27 14:37:00,84.0,77.9,29.97,ESE,112,0.0,0.0,82,0.00,,---,2.20,VWS V14.00,2013-07-27 18:37:00,
2013-07-27 14:42:00,83.8,77.3,29.96,SE,135,0.0,0.0,81,0.00,,---,2.20,VWS V14.00,2013-07-27 18:42:00,
2013-07-27 14:47:00,83.8,77.7,29.96,SSW,202,0.0,0.0,82,0.00,,---,2.20,VWS V14.00,2013-07-27 18:47:00,
2013-07-27 14:52:00,83.8,77.7,29.96,West,270,0.0,0.0,82,0.00,,---,2.20,VWS V14.00,2013-07-27 18:52:00,
2013-07-27 14:57:00,83.4,77.7,29.96,West,270,0.0,0.0,83,0.00,,---,2.20,VWS V14.00,2013-07-27 18:57:00,
2013-07-27 15:02:00,83.4,77.3,29.96,West,270,0.0,0.0,82,0.00,,---,2.20,VWS V14.00,2013-07-27 19:02:00,
2013-07-27 15:08:00,83.3,76.9,29.96,West,270,0.0,0.0,81,0.00,,---,2.20,VWS V14.00,2013-07-27 19:08:00,
2013-07-27 15:13:00,83.1,76.3,29.96,West,270,0.0,0.0,80,0.00,,---,2.20,VWS V14.00,2013-07-27 19:13:00,
2013-07-27 15:18:00,82.7,76.3,29.96,West,270,0.0,0.0,81,0.00,,---,2.20,VWS V14.00,2013-07-27 19:18:00,
2013-07-27 15:23:00,82.5,76.1,29.95,West,270,0.0,0.0,81,0.00,,---,2.20,VWS V14.00,2013-07-27 19:23:00,
2013-07-27 15:28:00,82.4,75.6,29.95,West,270,0.0,0.0,80,0.00,,---,2.20,VWS V14.00,2013-07-27 19:28:00,
2013-07-27 15:33:00,82.5,76.1,29.95,West,270,0.0,0.0,81,0.00,,---,2.20,VWS V14.00,2013-07-27 19:33:00,
2013-07-27 15:38:00,82.5,76.1,29.95,West,270,0.0,0.0,81,0.00,,---,2.20,VWS V14.00,2013-07-27 19:38:00,
2013-07-27 15:43:00,82.5,76.1,29.95,West,270,0.0,0.0,81,0.00,,---,2.20,VWS V14.00,2013-07-27 19:43:00,
2013-07-27 15:48:00,82.5,76.1,29.95,West,270,0.0,0.0,81,0.00,,---,2.20,VWS V14.00,2013-07-27 19:48:00,
2013-07-27 15:53:00,82.2,75.4,29.95,SSW,202,0.0,0.0,80,0.00,,---,2.20,VWS V14.00,2013-07-27 19:53:00,
2013-07-27 15:58:00,82.2,75.0,29.95,South,180,0.0,0.0,79,0.00,,---,2.20,VWS V14.00,2013-07-27 19:58:00,
2013-07-27 16:03:00,82.2,75.4,29.95,WSW,248,0.0,0.0,80,0.00,,---,2.20,VWS V14.00,2013-07-27 20:03:00,
2013-07-27 16:08:00,82.2,75.0,29.95,WSW,248,0.0,0.0,79,0.00,,---,2.20,VWS V14.00,2013-07-27 20:08:00,
2013-07-27 16:13:00,82.0,75.2,29.95,WSW,248,0.0,0.0,80,0.00,,---,2.20,VWS V14.00,2013-07-27 20:13:00,
2013-07-27 16:18:00,81.6,74.8,29.95,WSW,248,0.0,0.0,80,0.00,,---,2.20,VWS V14.00,2013-07-27 20:18:00,
2013-07-27 16:24:00,81.5,74.7,29.95,WSW,248,0.0,0.0,80,0.00,,---,2.20,VWS V14.00,2013-07-27 20:24:00,
2013-07-27 16:29:00,81.5,74.4,29.95,WSW,248,0.0,0.0,79,0.00,,---,2.20,VWS V14.00,2013-07-27 20:29:00,
2013-07-27 16:34:00,81.3,74.5,29.95,WSW,248,0.0,0.0,80,0.00,,---,2.20,VWS V14.00,2013-07-27 20:34:00,
2013-07-27 16:39:00,81.1,74.3,29.95,WSW,248,0.0,0.0,80,0.00,,---,2.20,VWS V14.00,2013-07-27 20:39:00,
2013-07-27 16:44:00,80.9,74.2,29.95,SSW,202,0.0,0.0,80,0.00,,---,2.20,VWS V14.00,2013-07-27 20:44:00,
2013-07-27 16:49:00,80.9,74.2,29.94,SSW,202,0.0,0.0,80,0.00,,---,2.20,VWS V14.00,2013-07-27 20:49:00,
2013-07-27 16:54:00,80.9,74.5,29.94,SSW,202,0.0,0.0,81,0.00,,---,2.20,VWS V14.00,2013-07-27 20:54:00,
2013-07-27 16:59:00,80.9,74.5,29.95,SE,135,0.0,0.0,81,0.00,,---,2.20,VWS V14.00,2013-07-27 20:59:00,
2013-07-27 17:04:00,80.9,74.5,29.94,SW,225,0.0,0.0,81,0.00,,---,2.20,VWS V14.00,2013-07-27 21:04:00,
2013-07-27 17:09:00,80.9,74.2,29.94,SSE,158,0.0,0.0,80,0.00,,---,2.20,VWS V14.00,2013-07-27 21:09:00,
2013-07-27 17:14:00,80.9,73.8,29.94,SW,225,0.0,0.0,79,0.00,,---,2.20,VWS V14.00,2013-07-27 21:14:00,
2013-07-27 17:19:00,80.9,74.2,29.94,West,270,0.0,0.0,80,0.00,,---,2.20,VWS V14.00,2013-07-27 21:19:00,
2013-07-27 17:24:00,81.1,74.7,29.94,West,270,0.0,0.0,81,0.00,,---,2.20,VWS V14.00,2013-07-27 21:24:00,
2013-07-27 17:29:00,81.1,75.1,29.94,West,270,0.0,0.0,82,0.00,,---,2.20,VWS V14.00,2013-07-27 21:29:00,
2013-07-27 17:34:00,80.9,74.5,29.94,West,270,0.0,0.0,81,0.00,,---,2.20,VWS V14.00,2013-07-27 21:34:00,
2013-07-27 17:39:00,80.7,74.3,29.94,West,270,0.0,0.0,81,0.00,,---,2.20,VWS V14.00,2013-07-27 21:39:00,
2013-07-27 17:44:00,80.7,74.3,29.94,West,270,0.0,0.0,81,0.00,,---,2.20,VWS V14.00,2013-07-27 21:44:00,
2013-07-27 17:49:00,80.7,74.7,29.94,WSW,248,0.0,0.0,82,0.00,,---,2.20,VWS V14.00,2013-07-27 21:49:00,
2013-07-27 17:54:00,81.1,74.7,29.94,West,270,0.0,0.0,81,0.00,,---,2.20,VWS V14.00,2013-07-27 21:54:00,
2013-07-27 17:59:00,80.9,74.5,29.94,South,180,0.0,0.0,81,0.00,,---,2.20,VWS V14.00,2013-07-27 21:59:00,
2013-07-27 18:04:00,80.7,74.3,29.94,NE,45,0.0,0.0,81,0.00,,---,2.20,VWS V14.00,2013-07-27 22:04:00,
2013-07-27 18:09:00,80.4,74.0,29.94,SSE,158,0.0,0.0,81,0.00,,---,2.20,VWS V14.00,2013-07-27 22:09:00,
2013-07-27 18:14:00,80.2,74.2,29.94,NE,45,0.0,0.0,82,0.00,,---,2.20,VWS V14.00,2013-07-27 22:14:00,
2013-07-27 18:19:00,79.5,73.9,29.94,SSE,158,0.0,0.0,83,0.00,,---,2.20,VWS V14.00,2013-07-27 22:19:00,
2013-07-27 18:24:00,79.3,74.1,29.94,WSW,248,0.0,0.0,84,0.00,,---,2.20,VWS V14.00,2013-07-27 22:24:00,
2013-07-27 18:29:00,79.1,73.8,29.94,SW,225,0.0,0.0,84,0.00,,---,2.20,VWS V14.00,2013-07-27 22:29:00,
2013-07-27 18:34:00,78.9,73.7,29.94,ESE,112,0.0,0.0,84,0.00,,---,2.20,VWS V14.00,2013-07-27 22:34:00,
2013-07-27 18:39:00,78.6,73.4,29.94,SSE,158,0.0,0.0,84,0.00,,---,2.20,VWS V14.00,2013-07-27 22:39:00,
2013-07-27 18:44:00,78.4,73.2,29.95,SSE,158,0.0,0.0,84,0.00,,---,2.20,VWS V14.00,2013-07-27 22:44:00,
2013-07-27 18:49:00,78.0,73.1,29.95,NE,45,0.0,0.0,85,0.00,,---,2.20,VWS V14.00,2013-07-27 22:49:00,
2013-07-27 18:54:00,77.9,73.0,29.95,SSE,158,0.0,0.0,85,0.00,,---,2.20,VWS V14.00,2013-07-27 22:54:00,
2013-07-27 18:59:00,77.7,73.2,29.95,ESE,112,0.0,0.0,86,0.00,,---,2.20,VWS V14.00,2013-07-27 22:59:00,
2013-07-27 19:05:00,77.5,73.0,29.95,ESE,112,0.0,0.0,86,0.00,,---,2.20,VWS V14.00,2013-07-27 23:05:00,
2013-07-27 19:10:00,77.1,72.9,29.95,SSE,158,0.0,0.0,87,0.00,,---,2.20,VWS V14.00,2013-07-27 23:10:00,
2013-07-27 19:15:00,77.1,72.9,29.95,SSW,202,0.0,0.0,87,0.00,,---,2.20,VWS V14.00,2013-07-27 23:15:00,
2013-07-27 19:20:00,76.8,72.6,29.95,SSW,202,0.0,0.0,87,0.00,,---,2.20,VWS V14.00,2013-07-27 23:20:00,
2013-07-27 19:25:00,76.6,72.8,29.95,SSW,202,0.0,0.0,88,0.00,,---,2.20,VWS V14.00,2013-07-27 23:25:00,
2013-07-27 19:30:00,76.4,72.9,29.95,East,90,0.0,0.0,89,0.00,,---,2.20,VWS V14.00,2013-07-27 23:30:00,
2013-07-27 19:35:00,76.1,72.6,29.95,SE,135,0.0,0.0,89,0.00,,---,2.20,VWS V14.00,2013-07-27 23:35:00,
2013-07-27 19:40:00,75.7,72.2,29.95,SE,135,0.0,0.0,89,0.00,,---,2.20,VWS V14.00,2013-07-27 23:40:00,
2013-07-27 19:45:00,75.5,72.0,29.95,SE,135,0.0,0.0,89,0.00,,---,2.20,VWS V14.00,2013-07-27 23:45:00,
2013-07-27 19:50:00,75.2,72.1,29.95,SE,135,0.0,0.0,90,0.00,,---,2.20,VWS V14.00,2013-07-27 23:50:00,
2013-07-27 19:55:00,74.8,72.0,29.95,East,90,0.0,0.0,91,0.00,,---,2.20,VWS V14.00,2013-07-27 23:55:00,
2013-07-27 20:00:00,74.8,72.0,29.95,East,90,0.0,0.0,91,0.00,,---,2.20,VWS V14.00,2013-07-28 00:00:00,
2013-07-27 20:05:00,74.4,71.6,29.95,East,90,0.0,0.0,91,0.00,,---,2.20,VWS V14.00,2013-07-28 00:05:00,
2013-07-27 20:10:00,74.1,71.3,29.95,East,90,0.0,0.0,91,0.00,,---,2.20,VWS V14.00,2013-07-28 00:10:00,
2013-07-27 20:15:00,73.9,71.4,29.95,SSW,202,0.0,0.0,92,0.00,,---,2.20,VWS V14.00,2013-07-28 00:15:00,
2013-07-27 20:20:00,73.7,71.2,29.95,SW,225,0.0,0.0,92,0.00,,---,2.20,VWS V14.00,2013-07-28 00:20:00,
2013-07-27 20:25:00,73.5,71.0,29.95,SW,225,0.0,0.0,92,0.00,,---,2.20,VWS V14.00,2013-07-28 00:25:00,
2013-07-27 20:30:00,73.2,71.1,29.95,East,90,0.0,0.0,93,0.00,,---,2.20,VWS V14.00,2013-07-28 00:30:00,
2013-07-27 20:35:00,73.2,71.1,29.96,East,90,0.0,0.0,93,0.00,,---,2.20,VWS V14.00,2013-07-28 00:35:00,
2013-07-27 20:40:00,73.0,70.9,29.96,ESE,112,0.0,0.0,93,0.00,,---,2.20,VWS V14.00,2013-07-28 00:40:00,
2013-07-27 20:45:00,72.6,70.2,29.96,ESE,112,0.0,0.0,92,0.00,,---,2.20,VWS V14.00,2013-07-28 00:45:00,
2013-07-27 20:50:00,72.6,70.5,29.96,ESE,112,0.0,0.0,93,0.00,,---,2.20,VWS V14.00,2013-07-28 00:50:00,
2013-07-27 20:55:00,72.3,70.2,29.97,ESE,112,0.0,0.0,93,0.00,,---,2.20,VWS V14.00,2013-07-28 00:55:00,
2013-07-27 21:00:00,72.1,70.0,29.96,SW,225,0.0,0.0,93,0.00,,---,2.20,VWS V14.00,2013-07-28 01:00:00,
2013-07-27 21:06:00,71.9,70.1,29.97,SW,225,0.0,0.0,94,0.00,,---,2.20,VWS V14.00,2013-07-28 01:06:00,
2013-07-27 21:10:00,71.7,69.9,29.96,SW,225,0.0,0.0,94,0.00,,---,2.20,VWS V14.00,2013-07-28 01:10:00,
2013-07-27 21:16:00,71.7,69.9,29.97,SW,225,0.0,0.0,94,0.00,,---,2.20,VWS V14.00,2013-07-28 01:16:00,
2013-07-27 21:21:00,71.7,70.2,29.96,SW,225,0.0,0.0,95,0.00,,---,2.20,VWS V14.00,2013-07-28 01:21:00,
2013-07-27 21:26:00,71.4,69.9,29.96,SW,225,0.0,0.0,95,0.00,,---,2.20,VWS V14.00,2013-07-28 01:26:00,
2013-07-27 21:31:00,71.4,69.9,29.97,SW,225,0.0,0.0,95,0.00,,---,2.20,VWS V14.00,2013-07-28 01:31:00,
2013-07-27 21:36:00,71.4,70.2,29.97,South,180,0.0,0.0,96,0.00,,---,2.20,VWS V14.00,2013-07-28 01:36:00,
2013-07-27 21:41:00,71.4,70.2,29.96,South,180,0.0,0.0,96,0.00,,---,2.20,VWS V14.00,2013-07-28 01:41:00,
2013-07-27 21:46:00,71.2,70.0,29.97,South,180,0.0,0.0,96,0.00,,---,2.20,VWS V14.00,2013-07-28 01:46:00,
2013-07-27 21:51:00,71.2,70.0,29.97,South,180,0.0,0.0,96,0.00,,---,2.20,VWS V14.00,2013-07-28 01:51:00,
2013-07-27 21:56:00,70.8,69.6,29.97,South,180,0.0,0.0,96,0.00,,---,2.20,VWS V14.00,2013-07-28 01:56:00,
2013-07-27 22:01:00,70.8,69.6,29.97,South,180,0.0,0.0,96,0.00,,---,2.20,VWS V14.00,2013-07-28 02:01:00,
2013-07-27 22:06:00,70.5,69.3,29.98,South,180,0.0,0.0,96,0.00,,---,2.20,VWS V14.00,2013-07-28 02:06:00,
2013-07-27 22:11:00,70.5,69.6,29.98,South,180,0.0,0.0,97,0.00,,---,2.20,VWS V14.00,2013-07-28 02:11:00,
2013-07-27 22:16:00,70.5,69.6,29.98,South,180,0.0,0.0,97,0.00,,---,2.20,VWS V14.00,2013-07-28 02:16:00,
2013-07-27 22:21:00,70.5,69.6,29.98,South,180,0.0,0.0,97,0.00,,---,2.20,VWS V14.00,2013-07-28 02:21:00,
2013-07-27 22:27:00,70.3,69.4,29.98,South,180,0.0,0.0,97,0.00,,---,2.20,VWS V14.00,2013-07-28 02:27:00,
2013-07-27 22:32:00,70.3,69.7,29.98,South,180,0.0,0.0,98,0.00,,---,2.20,VWS V14.00,2013-07-28 02:32:00,
2013-07-27 22:37:00,70.3,69.7,29.98,South,180,0.0,0.0,98,0.00,,---,2.20,VWS V14.00,2013-07-28 02:37:00,
2013-07-27 22:42:00,70.1,69.5,29.98,SSW,202,0.0,0.0,98,0.00,,---,2.20,VWS V14.00,2013-07-28 02:42:00,
2013-07-27 22:47:00,70.1,69.5,29.98,South,180,0.0,0.0,98,0.00,,---,2.20,VWS V14.00,2013-07-28 02:47:00,
2013-07-27 22:52:00,70.1,69.8,29.98,South,180,0.0,0.0,99,0.00,,---,2.20,VWS V14.00,2013-07-28 02:52:00,
2013-07-27 22:57:00,69.9,69.6,29.97,South,180,0.0,0.0,99,0.00,,---,2.20,VWS V14.00,2013-07-28 02:57:00,
2013-07-27 23:02:00,69.9,69.6,29.97,South,180,0.0,0.0,99,0.00,,---,2.20,VWS V14.00,2013-07-28 03:02:00,
2013-07-27 23:07:00,69.9,69.6,29.98,South,180,0.0,0.0,99,0.00,,---,2.20,VWS V14.00,2013-07-28 03:07:00,
2013-07-27 23:12:00,69.9,69.6,29.97,South,180,0.0,0.0,99,0.00,,---,2.20,VWS V14.00,2013-07-28 03:12:00,
2013-07-27 23:17:00,69.8,69.5,29.97,South,180,0.0,0.0,99,0.00,,---,2.20,VWS V14.00,2013-07-28 03:17:00,
2013-07-27 23:22:00,69.6,69.3,29.98,South,180,0.0,0.0,99,0.00,,---,2.20,VWS V14.00,2013-07-28 03:22:00,
2013-07-27 23:27:00,69.6,69.3,29.97,South,180,0.0,0.0,99,0.00,,---,2.20,VWS V14.00,2013-07-28 03:27:00,
2013-07-27 23:32:00,69.6,69.3,29.97,South,180,0.0,0.0,99,0.00,,---,2.20,VWS V14.00,2013-07-28 03:32:00,
2013-07-27 23:37:00,69.4,69.1,29.98,South,180,0.0,0.0,99,0.00,,---,2.20,VWS V14.00,2013-07-28 03:37:00,
2013-07-27 23:42:00,69.4,69.1,29.98,South,180,0.0,0.0,99,0.00,,---,2.20,VWS V14.00,2013-07-28 03:42:00,
2013-07-27 23:47:00,69.2,68.9,29.98,South,180,0.0,0.0,99,0.00,,---,2.20,VWS V14.00,2013-07-28 03:47:00,
2013-07-27 23:52:00,69.2,68.9,29.98,SW,225,0.0,0.0,99,0.00,,---,2.20,VWS V14.00,2013-07-28 03:52:00,
2013-07-27 23:57:00,69.0,68.7,29.97,SW,225,0.0,0.0,99,0.00,,---,2.20,VWS V14.00,2013-07-28 03:57:00,